Overview Statistics Trail Chart Weather Telemetry Raw packets
 

This is the latest recevied weather packets stored in our database for station/object HS2XQB-3. If no packets are shown the sender has not sent any weather packets the latest 10 day(s).

<< 6 7 8 9 10 11 12 >>
Time Temp. Humidity Pressure Rain* Wind** Luminosity Snow
1788358604 21.67° C 41% 1005 hPa - - 0 W/m² -
1788356782 22.22° C 41% 1005 hPa - - 0 W/m² -
1788354960 22.22° C 40% 1004 hPa - - 0 W/m² -
1788353138 22.22° C 40% 1004 hPa - - 0 W/m² -
1788351316 22.22° C 40% 1004 hPa - - 0 W/m² -
1788349494 22.78° C 40% 1003 hPa - - 0 W/m² -
1788347672 23.89° C 38% 1003 hPa - - 0 W/m² -
1788345850 24.44° C 38% 1003 hPa - - 0 W/m² -
1788344028 25° C 38% 1003 hPa - - 0 W/m² -
1788342206 26.67° C 41% 1003 hPa - - 0 W/m² -
1788340384 25.56° C 37% 1003 hPa - - 0 W/m² -
1788338562 26.11° C 36% 1003 hPa - - 0 W/m² -
1788336740 26.11° C 36% 1004 hPa - - 0 W/m² -
1788334918 27.22° C 36% 1004 hPa - - 0 W/m² -
1788333096 27.22° C 35% 1004 hPa - - 0 W/m² -
1788331274 27.78° C 35% 1005 hPa - - 0 W/m² -
1788329452 27.78° C 35% 1005 hPa - - 0 W/m² -
1788327630 27.78° C 36% 1006 hPa - - 0 W/m² -
1788325808 28.33° C 37% 1006 hPa - - 0 W/m² -
1788323986 28.33° C 37% 1006 hPa - - 0 W/m² -
1788322164 27.78° C 38% 1007 hPa - - 0 W/m² -
1788320342 28.33° C 38% 1007 hPa - - 0 W/m² -
1788318520 27.78° C 38% 1007 hPa - - 0 W/m² -
1788316697 27.78° C 40% 1007 hPa - - 0 W/m² -
1788314875 28.33° C 41% 1007 hPa - - 0 W/m² -

* Rain since midnight (hover to see other rain measurements)
** Current wind speed in m/s (hover to see current wind gust speed)